Location: B�rgermoos
(47.6500°N, 9.0667°E)
Time: 08:18:16
(UTC+00:00)

Vanguard 3 - Pass Details

Date: 09 August 2021
Orbit: 510 x 3260 km, 33.4° (Epoch: 23 September)

Event Time Altitude Azimuth Distance (km) Brightness Sun altitude
Rises 19:05:54 0° 267° (W) 5,588 12.6 -3.8°
Reaches altitude 10° 19:09:26 10° 260° (W) 4,918 12.0 -4.4°
Maximum altitude 19:23:01 40° 198° (SSW) 3,910 10.5 -6.3°
Drops below altitude 10° 19:40:19 10° 139° (SE) 6,177 11.0 -8.8°
Enters shadow 19:41:14 - 137° (SE) 6,338 11.0 -8.9°
